www.pogodaiklimat.ru

Погода и климат >> Архив погоды >> Япония >> Сасебо


ПОГОДА в Сасебо

  • Прогноз погоды в Сасебо
  • Монитор погоды в Сасебо

АРХИВ ПОГОДЫ в Сасебо

Время (UTC), дата Ветер
(напр.,м/с)
 
Видим.   Явления Облачность Т
(С)
Тd
(С)
f
(%)
Тe
(С)
Тes
(С)
Комфортность P
(гПа)
Po
(гПа)
Тmin
(С)
Tmax
(С)
R
(мм)
R24
(мм)
S
(см)
10 12.09 С 6 20 км н/о +26.8 +21.3 72 +34 +34 очень
душно
1010.8 1010.2
12 12.09 С 2 20 км н/о +27.0 +21.1 70 +34 +34 очень
душно
1011.4 1010.8 +32.3
13 12.09 С 4 20 км н/о +26.4 +21.2 73 +33 +33 очень
душно
1011.5 1010.9
15 12.09 СЗ 2 20 км н/о +26.3 +21.1 73 +33 +33 очень
душно
1010.6 1010.0
16 12.09 СВ 2 20 км н/о +26.2 +21.2 74 +33 +33 очень
душно
1010.2 1009.6
18 12.09 С 3 20 км н/о +25.9 +20.9 74 +32 +32 очень
душно
1010.0 1009.4
19 12.09 С 3 20 км н/о +25.7 +20.9 75 +32 +32 очень
душно
1009.8 1009.2
20 12.09 С 2 20 км н/о +25.5 +21.2 77 +32 +32 очень
душно
1009.9 1009.3
21 12.09 С 3 20 км н/о +25.8 +21.0 75 +32 +32 очень
душно
1010.0 1009.4
22 12.09 С 2 20 км н/о +25.8 +21.0 75 +32 +32 очень
душно
1010.1 1009.5
23 12.09 Ю 1 20 км н/о +26.9 +21.9 74 +35 +35 очень
душно
1010.4 1009.8
01 13.09 С 3 20 км н/о +28.9 +21.4 64 +37 +37 очень
душно
1010.3 1009.7
02 13.09 С 4 20 км н/о +28.8 +21.6 65 +37 +37 очень
душно
1009.9 1009.3
03 13.09 С 3 20 км н/о +29.3 +21.0 61 +37 +37 очень
душно
1009.7 1009.1
04 13.09 С 5 19 км н/о +30.4 +21.8 60 +39 +39 очень
душно
1008.8 1008.2
05 13.09 СЗ 5 20 км н/о +30.7 +21.5 58 +39 +39 очень
душно
1008.1 1007.5
06 13.09 С 4 20 км н/о +30.4 +22.3 62 +39 +39 очень
душно
1007.8 1007.2
08 13.09 С 6 20 км н/о +29.1 +20.8 61 +36 +36 очень
душно
1008.0 1007.4
09 13.09 С 5 20 км н/о +27.7 +20.3 64 +34 +34 очень
душно
1008.6 1008.0
10 13.09 С 5 20 км н/о +26.7 +20.3 68 +33 +33 очень
душно
1009.0 1008.4
11 13.09 С 6 20 км н/о +26.6 +20.5 69 +33 +33 очень
душно
1009.8 1009.2
13 13.09 С 3 20 км н/о +26.7 +21.2 72 +34 +34 очень
душно
1010.2 1009.6
14 13.09 ЮЗ 2 20 км н/о +25.9 +22.0 79 +33 +33 очень
душно
1010.0 1009.4
15 13.09 З 1 20 км н/о +25.8 +22.3 81 +34 +34 очень
душно
1009.8 1009.2
16 13.09 В 1 20 км н/о +26.1 +21.3 75 +33 +33 очень
душно
1009.8 1009.2
17 13.09 З 1 20 км н/о +25.6 +22.1 81 +33 +33 очень
душно
1009.6 1009.0
18 13.09 СЗ 1 19 км н/о +25.3 +21.8 81 +33 +33 очень
душно
1009.6 1009.0
19 13.09 СЗ 2 17 км н/о +25.3 +21.6 80 +32 +32 очень
душно
1009.4 1008.8
21 13.09 Ю 1 17 км н/о +24.4 +21.9 86 +31 +31 очень
душно
1009.9 1009.3
00 14.09 Ю 1 16 км н/о +27.8 +22.7 74 +37 +37 очень
душно
1010.4 1009.8 +24.3
01 14.09 ЮВ 2 20 км н/о +29.5 +22.2 65 +38 +38 очень
душно
1010.2 1009.6
02 14.09 ЮВ 4 20 км н/о +31.1 +21.6 57 +39 +39 очень
душно
1009.6 1009.0
03 14.09 Ю 3 20 км н/о +32.3 +21.2 52 +40 +40 очень
душно
1009.0 1008.4
04 14.09 ЮЗ 3 20 км н/о +31.9 +22.9 59 +42 +42 опасность
перегрева
1008.6 1008.0
05 14.09 СЗ 4 20 км н/о +32.3 +23.3 59 +43 +43 опасность
перегрева
1007.9 1007.3
06 14.09 С 6 18 км н/о +30.8 +22.1 60 +40 +40 очень
душно
1007.7 1007.1
07 14.09 СЗ 5 17 км н/о +31.3 +22.9 61 +41 +41 опасность
перегрева
1007.8 1007.2
08 14.09 С 6 17 км н/о +30.6 +22.0 60 +39 +39 очень
душно
1007.8 1007.2
09 14.09 С 4 18 км н/о +29.8 +21.7 62 +38 +38 очень
душно
1008.0 1007.4
10 14.09 С 5 17 км н/о +28.9 +21.4 64 +37 +37 очень
душно
1008.3 1007.7
11 14.09 С 4 17 км н/о +28.4 +21.4 66 +36 +36 очень
душно
1009.0 1008.4
13 14.09 Ю 2 15 км н/о +26.7 +22.5 78 +35 +35 очень
душно
1009.9 1009.3
14 14.09 ЮЗ 2 14 км н/о +26.3 +23.0 82 +35 +35 очень
душно
1009.7 1009.1
15 14.09 В 2 15 км н/о +26.5 +22.6 79 +35 +35 очень
душно
1009.6 1009.0
16 14.09 ЮЗ 1 14 км н/о +25.9 +23.0 84 +35 +35 очень
душно
1009.2 1008.6
18 14.09 В 1 13 км н/о +25.3 +22.6 85 +33 +33 очень
душно
1008.6 1008.0
19 14.09 ЮВ 1 11 км н/о +25.1 +23.3 90 +34 +34 очень
душно
1008.1 1007.5
20 14.09 ЮВ 1 13 км н/о +24.9 +22.8 88 +33 +33 очень
душно
1008.1 1007.5
21 14.09 ЮВ 1 11 км н/о +24.9 +23.2 90 +33 +33 очень
душно
1008.5 1007.9
22 14.09 Ю 1 12 км н/о +25.1 +23.0 88 +33 +33 очень
душно
1008.6 1008.0
23 14.09 Ю 1 12 км н/о +26.4 +23.3 83 +36 +36 очень
душно
1008.7 1008.1
00 15.09 З 1 15 км н/о +28.2 +23.1 74 +38 +38 очень
душно
1008.8 1008.2 +24.7
01 15.09 З 2 18 км н/о +29.7 +23.2 68 +40 +40 очень
душно
1008.5 1007.9
02 15.09 С 5 16 км н/о +30.5 +21.3 58 +38 +38 очень
душно
1007.9 1007.3
03 15.09 С 4 20 км н/о +31.9 +21.7 55 +40 +40 очень
душно
1007.3 1006.7
04 15.09 С 6 19 км н/о +31.1 +22.1 59 +40 +40 очень
душно
1006.5 1005.9
05 15.09 С 5 20 км н/о +32.5 +21.7 53 +41 +41 опасность
перегрева
1005.8 1005.2
06 15.09 С 5 19 км н/о +31.5 +22.0 57 +40 +40 очень
душно
1005.2 1004.6
07 15.09 С 8 20 км н/о +30.0 +22.4 64 +39 +39 очень
душно
1005.3 1004.7
08 15.09 С 6 20 км н/о +29.5 +22.5 66 +39 +39 очень
душно
1005.3 1004.7
09 15.09 С 8 20 км н/о +28.2 +22.0 69 +36 +36 очень
душно
1005.4 1004.8
10 15.09 С 7 20 км н/о +27.4 +22.1 73 +36 +36 очень
душно
1005.6 1005.0
11 15.09 С 6 20 км н/о +27.1 +22.1 74 +35 +35 очень
душно
1006.1 1005.5
12 15.09 С 7 20 км н/о +26.8 +21.8 74 +34 +34 очень
душно
1006.5 1005.9 +32.7
13 15.09 С 6 20 км н/о +26.8 +21.6 73 +34 +34 очень
душно
1006.7 1006.1
14 15.09 С 4 20 км н/о +26.5 +21.5 74 +34 +34 очень
душно
1006.7 1006.1
16 15.09 С 5 20 км н/о +26.4 +21.2 73 +33 +33 очень
душно
1006.3 1005.7
17 15.09 С 5 20 км н/о +26.2 +21.2 74 +33 +33 очень
душно
1006.2 1005.6
18 15.09 С 5 20 км н/о +26.1 +20.7 72 +33 +33 очень
душно
1005.6 1005.0
19 15.09 С 4 20 км н/о +26.0 +20.3 71 +32 +32 очень
душно
1005.5 1004.9
21 15.09 С 2 20 км н/о +25.9 +20.5 72 +32 +32 очень
душно
1005.8 1005.2
22 15.09 С 4 20 км н/о +26.1 +20.7 72 +33 +33 очень
душно
1005.9 1005.3
23 15.09 С 4 20 км н/о +26.7 +20.3 68 +33 +33 очень
душно
1006.4 1005.8
00 16.09 С 4 20 км н/о +26.8 +19.7 65 +33 +33 очень
душно
1006.9 1006.3 +25.7
03 16.09 С 9 20 км н/о +28.3 +19.0 57 +34 +34 очень
душно
1006.4 1005.8
04 16.09 С 5 20 км н/о +29.1 +19.2 55 +35 +35 очень
душно
1006.2 1005.6
05 16.09 С 7 20 км н/о +28.6 +19.3 57 +34 +34 очень
душно
1006.1 1005.5
07 16.09 С 6 20 км н/о +27.3 +18.6 59 +32 +32 очень
душно
1006.0 1005.4
08 16.09 С 5 20 км н/о +26.5 +18.4 61 +31 +31 душно 1006.5 1005.9
09 16.09 С 5 20 км н/о +25.5 +18.2 64 +30 +30 душно 1006.8 1006.2
10 16.09 С 5 20 км в посл. час дождь н/о +25.1 +18.3 66 +30 +30 душно 1007.1 1006.5
11 16.09 С 6 20 км н/о +25.0 +18.5 67 +30 +30 душно 1007.8 1007.2
12 16.09 С 3 20 км {дождь} н/о +24.5 +17.7 66 +29 +29 душно 1008.1 1007.5 +29.7 0.0
13 16.09 С 4 20 км н/о +24.3 +17.3 65 +28 +28 душно 1008.2 1007.6
14 16.09 С 3 20 км н/о +24.4 +17.2 64 +28 +28 душно 1008.3 1007.7
15 16.09 С 2 20 км н/о +24.2 +16.5 62 +28 +28 душно 1008.5 1007.9
16 16.09 С 3 20 км н/о +24.1 +17.1 65 +28 +28 душно 1008.5 1007.9
17 16.09 С 5 20 км н/о +24.0 +16.8 64 +28 +28 душно 1008.2 1007.6
18 16.09 С 5 20 км н/о +24.2 +17.9 68 +28 +28 душно 1008.0 1007.4
19 16.09 С 4 20 км н/о +24.3 +18.9 72 +29 +29 душно 1008.2 1007.6
20 16.09 В 5 20 км н/о +24.6 +19.2 72 +30 +30 очень
душно
1008.4 1007.8
21 16.09 СВ 2 20 км н/о +24.7 +19.8 74 +30 +30 очень
душно
1008.8 1008.2
22 16.09 СВ 4 20 км в посл. час дождь н/о +25.2 +19.8 72 +31 +31 очень
душно
1009.2 1008.6
23 16.09 СВ 3 20 км слаб. дождь н/о +25.8 +20.2 71 +32 +32 очень
душно
1009.9 1009.3
01 17.09 С 2 20 км н/о +28.1 +19.9 61 +34 +34 очень
душно
1010.3 1009.7
02 17.09 С 4 20 км н/о +28.7 +19.9 59 +35 +35 очень
душно
1010.0 1009.4
03 17.09 С 5 20 км н/о +28.6 +19.3 57 +34 +34 очень
душно
1009.5 1008.9
04 17.09 С 6 20 км н/о +28.5 +19.7 59 +34 +34 очень
душно
1009.1 1008.5
05 17.09 С 8 20 км н/о +27.9 +19.2 59 +33 +33 очень
душно
1009.2 1008.6
06 17.09 С 9 20 км н/о +27.8 +19.3 60 +33 +33 очень
душно
1008.9 1008.3
07 17.09 С 9 20 км н/о +26.9 +19.5 64 +33 +33 очень
душно
1009.0 1008.4
08 17.09 С 8 20 км н/о +26.7 +20.1 67 +33 +33 очень
душно
1008.9 1008.3
09 17.09 С 7 20 км н/о +25.9 +20.0 70 +32 +32 очень
душно
1009.1 1008.5
11 17.09 С 7 20 км н/о +25.4 +20.0 72 +31 +31 очень
душно
1010.0 1009.4
12 17.09 С 7 20 км н/о +25.3 +19.9 72 +31 +31 очень
душно
1010.4 1009.8 +29.6
13 17.09 С 7 20 км н/о +25.4 +20.2 73 +31 +31 очень
душно
1010.5 1009.9
14 17.09 С 5 20 км н/о +25.4 +20.0 72 +31 +31 очень
душно
1010.5 1009.9
15 17.09 С 4 20 км н/о +25.1 +19.9 73 +31 +31 очень
душно
1010.7 1010.1
16 17.09 С 5 20 км н/о +25.2 +20.0 73 +31 +31 очень
душно
1010.7 1010.1
18 17.09 С 4 20 км н/о +24.9 +19.7 73 +30 +30 душно 1010.4 1009.8
20 17.09 СВ 2 20 км н/о +24.7 +19.5 73 +30 +30 очень
душно
1010.4 1009.8
23 17.09 С 7 20 км н/о +25.3 +18.7 67 +30 +30 душно 1011.2 1010.6
00 18.09 С 4 20 км н/о +27.0 +19.6 64 +33 +33 очень
душно
1011.5 1010.9 +24.4
01 18.09 С 7 20 км н/о +27.3 +18.3 58 +32 +32 очень
душно
1012.0 1011.4
02 18.09 С 9 20 км в посл. час дождь н/о +27.2 +17.4 55 +31 +31 душно 1011.8 1011.2
03 18.09 С 6 20 км {дождь} н/о +28.2 +17.4 52 +32 +32 душно 1011.6 1011.0
04 18.09 С 6 20 км н/о +28.5 +16.4 48 +32 +32 душно 1011.4 1010.8
05 18.09 С 10 20 км н/о +27.7 +16.4 50 +31 +31 душно 1010.9 1010.3
06 18.09 С 12 20 км {дождь} н/о +27.1 +16.4 52 +31 +31 душно 1010.5 1009.9 0.0
07 18.09 С 6 20 км н/о +27.4 +15.8 49 +30 +30 жарко 1010.6 1010.0
09 18.09 С 4 20 км н/о +25.7 +15.4 53 +29 +29 душно 1011.7 1011.1
10 18.09 С 5 20 км н/о +24.9 +16.6 60 +28 +28 жарко 1011.8 1011.2
11 18.09 С 5 20 км н/о +24.7 +15.4 56 +28 +28 душно 1012.4 1011.8
13 18.09 СВ 6 20 км н/о +24.3 +15.5 58 +27 +27 жарко 1013.2 1012.6
14 18.09 СВ 6 20 км н/о +24.3 +14.7 55 +27 +27 жарко 1013.3 1012.7
15 18.09 СВ 4 20 км н/о +24.0 +15.0 57 +27 +27 жарко 1013.6 1013.0
16 18.09 С 6 20 км н/о +23.9 +14.3 55 +26 +26 жарко 1013.3 1012.7
17 18.09 СВ 6 20 км н/о +23.9 +12.9 50 +26 +26 жарко 1013.3 1012.7
18 18.09 СВ 7 20 км н/о +23.5 +14.2 56 +26 +26 жарко 1013.5 1012.9
19 18.09 СВ 7 20 км н/о +23.1 +14.9 60 +27 +27 душно 1013.5 1012.9
20 18.09 СВ 6 20 км н/о +23.1 +14.9 60 +27 +27 душно 1013.6 1013.0
21 18.09 СВ 7 20 км н/о +23.4 +14.7 58 +27 +27 душно 1013.7 1013.1
22 18.09 С 5 20 км н/о +23.2 +16.0 64 +28 +28 душно 1014.3 1013.7
23 18.09 С 7 20 км н/о +23.6 +15.9 62 +27 +27 жарко 1014.7 1014.1
00 19.09 С 6 20 км н/о +24.6 +15.8 58 +28 +28 душно 1015.2 1014.6 +22.9
01 19.09 В 3 20 км н/о +26.1 +15.5 52 +29 +29 жарко 1015.3 1014.7
02 19.09 СВ 4 20 км н/о +26.8 +16.1 52 +30 +30 душно 1015.0 1014.4
03 19.09 С 7 20 км н/о +26.7 +16.3 53 +30 +30 душно 1014.1 1013.5
04 19.09 СВ 4 20 км н/о +27.9 +16.5 50 +31 +31 душно 1013.1 1012.5
05 19.09 С 3 20 км н/о +28.5 +17.4 51 +33 +33 очень
душно
1012.2 1011.6
06 19.09 С 8 20 км н/о +27.4 +17.6 55 +32 +32 очень
душно
1011.8 1011.2
07 19.09 С 6 20 км н/о +26.4 +16.6 55 +30 +30 душно 1011.8 1011.2
08 19.09 С 9 20 км н/о +25.0 +16.2 58 +28 +28 жарко 1011.8 1011.2
09 19.09 С 11 20 км н/о +23.9 +15.9 61 +27 +27 жарко 1012.1 1011.5

 

Местоположение метеостанции Сасебо (Япония): широта 33.15 долгота 129.73 высота над уровнем моря 6 м.

В архиве по умолчанию представлена погода в Сасебо за последнюю неделю. Архивные данные за месяц целиком и за предыдущие месяцы, начиная с января 2011 года, Вы можете получить, выбрав интересующий диапазон дат из раскрывающегося списка и нажав кнопку "Ввод!".


*Определитесь, кто Вы:
робот инопланетянин человек

Внимание! Время в таблицах - всемирное. Для получения местного времени необходимо прибавить поправку, которая равна 9 ч.

Смотрите также архив погоды в соседних городах и на ближайших метеорологических станциях:

Погода в Хирадо (Япония) (30 км)
Погода в Нагасаки (Япония) (48 км)
Погода в Саге (Япония) (55 км)
Погода на Ундзэне (Япония) (68 км)
Погода в Фукуоке (Япония) (77 км)
Погода в Кумамото (Япония) (97 км)
Погода на Фукуэ (Япония) (98 км)
Погода в Иидзуке (Япония) (105 км)
Погода в Хите (Япония) (113 км)
Погода в Цусиме (Япония) (123 км)

Пояснения к столбцам:

Ветер - указаны скорость ветра в м/с - средняя за 10 мин, порывы в срок и между сроками (в фигурных скобках) и направление, откуда дует ветер: С - северный, СВ - северо-восточный, В - восточный, ЮВ - юго-восточный, Ю - южный, ЮЗ - юго-западный, З - западный, СЗ - северо-западный.
Видимость - горизонтальная дальность видимости в метрах или километрах. При видимости от 1 до 10 км при отсутствии осадков обычно наблюдается дымка, при ухудшении видимости до 1 км и менее - туман. В сухую погоду видимость может ухудшаться дымом, пылью или мглою.
Явления - указаны атмосферные явления, наблюдавшиеся в срок или в последний час перед сроком; фигурными скобками обозначены явления, наблюдавшиеся между сроками (за 1-3 часа до срока); квадратными скобками обозначены град или гололедные отложения с указанием их диаметра в мм.
Облачность - указаны через наклонную черту общая и нижняя облачность в баллах и высота нижней границы облаков в метрах; квадратными скобками обозначены формы облаков: Ci - перистые, Cs - перисто-слоистые, Cc - перисто-кучевые, Ac - высококучевые, As - высокослоистые, Sc - слоисто-кучевые, Ns - слоисто-дождевые, Cu - кучевые, Cb - кучево-дождевые. Подробнее классификацию облаков см. в Атласе облаков (PDF).
T - Температура воздуха - температура, измеренная на высоте 2 м над землей.
Td - Температура точки росы - температура, при понижении до которой содержащийся в воздухе водяной пар достигнет насыщения.
f - Относительная влажность воздуха - влажноcть воздуха, измеренная на высоте 2 м над землей.
Te - Эффективная температура - температура, которую ощущает одетый по сезону человек в тени. Характеристика душности погоды. При расчете учитывается влияние влажности воздуха и скорости ветра на теплоощущения человека.
Tes - Эффективная температура на солнце - температура, которую ощущает человек, с поправкой на солнечный нагрев. Характеристика знойности погоды. Зависит от высоты солнца над горизонтом, облачности и скорости ветра. Ночью, в пасмурную погоду, а также при ветре 12 м/с и более поправка равна нулю.
P - Атмосферное давление - приведенное к уровню моря атмосферное давление.
Po - Атмосферное давление - измеренное на уровне метеостанции атмосферное давление.
Tmin - Минимальная температура - минимум температуры воздуха на высоте 2 м над землей.
Tmax - Максимальная температура - максимум температуры воздуха на высоте 2 м над землей.
R - Количество осадков - Количество выпавших осадков за период времени, мм. При наведении курсора мыши на число - период времени, за который выпало указанное количество осадков.
R24 - Количество осадков - Количество выпавших осадков за 24 часа, мм.
S - Снежный покров - Высота снежного покрова, см. При наведении курсора мыши на число - состояние снежного покрова и степень покрытия местности в баллах.